This demonstration page uses our WeatherBlox Daily Observations layout. Learn more.

Left ArrowRight Arrow

39.01783, -85.05884

Hourly Observations for June 21, 2015

Temp ( °F °C ) Dew Point ( °F °C ) Humidity (%) Winds ( mph kmh ) Pressure ( in mb ) Visibility ( mi km ) Precip ( " mm )
1:52 am 01:52 Partly Cloudy 71 21.7 69 20.6 94 94 SW 6 9 29.91 1013 7 11 N/A
2:52 am 02:52 Mostly Cloudy 72 22.2 69 20.6 91 91 SW 6 9 29.91 1013 7 11 N/A
3:52 am 03:52 Cloudy 71 21.7 69 20.6 94 94 SW 6 9 29.91 1013 7 11 N/A
4:33 am 04:33 Cloudy 72 22 68 20 88 88 WNW 9 15 29.94 1014 9 14 N/A
4:52 am 04:52 Cloudy 72 22.2 67 19.4 84 84 NNW 7 11 29.90 1013 10 16 N/A
5:52 am 05:52 Cloudy 67 19.4 63 17.2 87 87 S 6 9 29.87 1012 10 16 N/A
6:52 am 06:52 Mostly Cloudy 69 20.6 64 17.8 84 84 S 9 15 29.85 1011 10 16 N/A
7:52 am 07:52 Mostly Cloudy 72 22.2 66 18.9 82 82 SSW 8 13 29.90 1012 10 16 N/A
8:52 am 08:52 Mostly Cloudy 74 23.3 67 19.4 79 79 SSW 7 11 29.91 1013 10 16 N/A
9:52 am 09:52 Mostly Cloudy 78 25.6 69 20.6 74 74 SW 8 13 29.91 1013 10 16 N/A
10:52 am 10:52 Mostly Cloudy 81 27.2 69 20.6 67 67 W 8 13 29.93 1014 10 16 N/A
11:52 am 11:52 Partly Cloudy 83 28.3 65 18.3 55 55 W 14 22 29.93 1014 10 16 N/A
12:52 pm 12:52 Mostly Cloudy 85 29.4 65 18.3 51 51 W 14 22 29.94 1014 10 16 N/A
1:52 pm 13:52 Mostly Cloudy 85 29.4 66 18.9 53 53 W 13 20 29.94 1014 10 16 N/A
2:52 pm 14:52 Mostly Cloudy 85 29.4 65 18.3 51 51 W 14 22 29.95 1014 10 16 N/A
3:52 pm 15:52 Mostly Cloudy 85 29.4 66 18.9 53 53 W 14 22 29.96 1014 10 16 N/A
4:52 pm 16:52 Mostly Cloudy 84 28.9 67 19.4 57 57 W 18 30 29.96 1015 10 16 N/A
5:52 pm 17:52 Partly Cloudy 82 27.8 68 20 63 63 W 13 20 29.97 1015 10 16 N/A
6:52 pm 18:52 Partly Cloudy 82 27.8 68 20 63 63 W 12 19 29.97 1015 10 16 N/A
7:52 pm 19:52 Cloudy 80 26.7 68 20 67 67 W 7 11 30.00 1016 10 16 N/A
8:52 pm 20:52 Mostly Cloudy 78 25.6 68 20 71 71 WSW 6 9 30.00 1016 10 16 N/A
9:52 pm 21:52 Mostly Cloudy 76 24.4 68 20 77 77 SSW 5 7 29.98 1015 10 16 N/A
10:52 pm 22:52 Mostly Cloudy 75 23.9 68 20 79 79 SW 5 7 30.01 1016 10 16 N/A
11:52 pm 23:52 Cloudy 74 23.3 69 20.6 85 85 N N/A 30.01 1016 10 16 N/A

Powered by AerisWeather